TimeMST,TemperatureF,Dew PointF,Humidity,Sea Level PressureIn,VisibilityMPH,Wind Direction,Wind SpeedMPH,Gust SpeedMPH,PrecipitationIn,Events,Conditions,WindDirDegrees,DateUTC
12:52 AM,45.0,21.9,40,29.88,10.0,SE,5.8,-,N/A,,Partly Cloudy,130,2012-11-09 07:52:00
1:52 AM,46.0,19.9,35,29.87,10.0,SSE,4.6,-,N/A,,Scattered Clouds,150,2012-11-09 08:52:00
2:52 AM,46.9,21.0,36,29.89,10.0,SE,5.8,-,0.00,,Scattered Clouds,140,2012-11-09 09:52:00
3:52 AM,51.1,24.1,35,29.86,10.0,Calm,Calm,-,0.00,,Overcast,0,2012-11-09 10:52:00
4:52 AM,46.9,28.0,48,29.87,10.0,Calm,Calm,-,N/A,,Mostly Cloudy,0,2012-11-09 11:52:00
5:52 AM,50.0,26.1,39,29.87,10.0,Calm,Calm,-,N/A,,Partly Cloudy,0,2012-11-09 12:52:00
6:52 AM,50.0,25.0,38,29.88,10.0,East,4.6,-,N/A,,Scattered Clouds,100,2012-11-09 13:52:00
7:52 AM,53.1,26.1,35,29.91,10.0,Calm,Calm,-,N/A,,Mostly Cloudy,0,2012-11-09 14:52:00
8:52 AM,53.1,27.0,37,29.92,10.0,West,3.5,-,N/A,,Mostly Cloudy,270,2012-11-09 15:52:00
9:52 AM,57.0,25.0,29,29.91,10.0,South,5.8,-,N/A,,Mostly Cloudy,190,2012-11-09 16:52:00
10:52 AM,55.0,28.0,35,29.93,10.0,South,10.4,-,0.00,Rain,Light Rain,190,2012-11-09 17:52:00
11:52 AM,55.0,36.0,49,29.90,10.0,South,9.2,-,0.00,,Mostly Cloudy,170,2012-11-09 18:52:00
12:52 PM,62.1,36.0,38,29.80,10.0,South,15.0,21.9,N/A,,Scattered Clouds,190,2012-11-09 19:52:00
1:52 PM,54.0,45.0,72,29.84,8.0,West,15.0,28.8,0.01,Rain,Rain,260,2012-11-09 20:52:00
1:54 PM,53.6,46.4,77,29.94,8.0,WSW,15.0,28.8,0.01,Rain,Rain,250,2012-11-09 20:54:00
2:52 PM,53.1,46.0,77,29.82,10.0,South,8.1,-,0.02,Rain,Light Rain,170,2012-11-09 21:52:00
3:52 PM,53.1,48.0,83,29.78,10.0,SE,12.7,-,0.01,,Scattered Clouds,130,2012-11-09 22:52:00
4:52 PM,52.0,48.0,86,29.78,10.0,SE,8.1,-,0.00,,Mostly Cloudy,130,2012-11-09 23:52:00
5:52 PM,52.0,46.9,83,29.77,10.0,SE,9.2,-,N/A,,Mostly Cloudy,130,2012-11-10 00:52:00
6:52 PM,54.0,44.1,69,29.77,10.0,South,10.4,-,0.00,Rain,Light Rain,180,2012-11-10 01:52:00
7:52 PM,53.1,45.0,74,29.77,10.0,South,9.2,-,0.00,Rain,Light Rain,180,2012-11-10 02:52:00
8:52 PM,50.0,45.0,83,29.78,10.0,SE,10.4,-,0.01,,Mostly Cloudy,130,2012-11-10 03:52:00
9:52 PM,50.0,44.1,80,29.75,10.0,SE,8.1,-,N/A,,Mostly Cloudy,140,2012-11-10 04:52:00
10:52 PM,48.9,43.0,80,29.74,10.0,SE,8.1,-,N/A,,Mostly Cloudy,130,2012-11-10 05:52:00
11:52 PM,52.0,42.1,69,29.72,10.0,South,9.2,-,N/A,,Mostly Cloudy,190,2012-11-10 06:52:00